Regional Weather Roundup
Issued by NWS

Home | Current Version | Previous Version | Graphics & Text | Print | Product List | Glossary On
Versions: 1 2 3 4 5 6 7 8 9 10 11 12 13 14 15 16 17 18 19 20 21 22 23 24 25 26 27 28 29 30 31 32 33 34 35 36 37 38 39 40 41 42 43 44 45 46 47 48 49 50
302
ASUS44 KMEG 260310
RWRTN
TENNESSEE HOURLY STATE WEATHER ROUNDUP
NATIONAL WEATHER SERVICE MEMPHIS TN
1000 PM CDT SUN JUN 25 2017

TNZ002-004-019-021-049-052-054-088>092-260400-
WEST TENNESSEE

CITY           SKY/WX    TMP DP  RH WIND       PRES   REMARKS
MEMPHIS INTL   CLEAR     74  54  49 CALM      30.18S
NWS MEMPHIS      N/A     67 N/A N/A MISG        N/A
JACKSON        CLEAR     65  62  90 CALM      30.18S
SOMERVILLE     CLEAR     64  63  94 CALM      30.18R
COVINGTON      CLEAR     66  63  88 S5        30.18S
UNION CITY     CLEAR     70  61  73 S5        30.16R
BOLIVAR        CLEAR     64  61  88 CALM      30.18S
PARIS          CLEAR     63  61  94 S3        30.17R
HUNTINGDON     CLEAR     66  61  82 CALM      30.17S
LEXINGTON      CLEAR     63  61  94 CALM      30.18S
SELMER         CLEAR     63  61  94 CALM      30.19S
SAVANNAH       CLEAR     63  61  94 CALM      30.18S
$$

TNZ008-025-027-028-033-062-065-066-260400-
NORTH MIDDLE TENNESSEE

CITY           SKY/WX    TMP DP  RH WIND       PRES   REMARKS
NASHVILLE      CLEAR     69  53  56 CALM      30.19R
PORTLAND       CLEAR     64  57  77 S3        30.18R
CLARKSVILLE    CLEAR     64  57  78 SW5       30.17R
SMYRNA         CLEAR     64  56  75 CALM      30.20R
COOKEVILLE     CLEAR     59  57  94 CALM      30.20R
GALLATIN       CLEAR     66  57  72 CALM      30.21R
CROSSVILLE     CLEAR     59  50  72 W3        30.24R
$$

TNZ061-075-076-078-094-096-097-260400-
SOUTH MIDDLE TENNESSEE

CITY           SKY/WX    TMP DP  RH WIND       PRES   REMARKS
FAYETTEVILLE   CLEAR     66  55  68 CALM      30.19S
TULLAHOMA      CLEAR     61  54  77 CALM      30.22S
WINCHESTER     CLEAR     61  57  88 CALM        N/A
MCMINNVILLE    CLEAR     63  59  88 CALM      30.21S
COLUMBIA       CLEAR     63  59  88 S3        30.18S
SHELBYVILLE    CLEAR     63  59  88 CALM      30.20S
$$

TNZ017-018-042-046-047-260400-
NORTHEAST TENNESSEE

CITY           SKY/WX    TMP DP  RH WIND       PRES   REMARKS
TRI CITIES     CLEAR     61  52  72 CALM      30.20R
ELIZABETHTON   CLEAR     57  55  94 CALM      30.21R
$$

TNZ012-013-036-069-073-074-260400-
CENTRAL EAST TENNESSEE

CITY           SKY/WX    TMP DP  RH WIND       PRES   REMARKS
KNOXVILLE      CLEAR     66  52  60 CALM      30.19R
OAK RIDGE      CLEAR     65  52  62 CALM      30.21R
DOWNTOWN KNOXV   N/A     63  57  82 CALM      30.19R
GATLINBURG     CLEAR     61  52  72 CALM      30.19S
MORRISTOWN     CLEAR     64  54  68 CALM      30.19S
JACKSBORO        N/A     61  55  82 CALM      30.24R
$$

TNZ083-085-099-260400-
SOUTHEAST TENNESSEE

CITY           SKY/WX    TMP DP  RH WIND       PRES   REMARKS
CHATTANOOGA    PTCLDY    69  51  52 CALM      30.19R
$$

SKY/WX REPORTED AS FAIR MEANS FEW OR NO CLOUDS BELOW
12 THOUSAND FEET.





USA.gov is the U.S. government's official web portal to all federal, state and local government web resources and services.